Voltar ao catálogo

STARLINK-3681

AtivoComunicaçõesVLEO
NORAD 51968·PAYLOAD·🇺🇸 United States

Lançado Mar 9, 2022 de Cape Canaveral Space Force Station

Loading…

Próximas Passagens (próximas 24 horas)

TLE

AtualizadoSource: CelesTrak SupGP

Época: Sep 14, 2026, 20:42 UTC

1 51968C 22025N   26257.86298611  .00037048  00000+0  11914-2 0  2579
2 51968  53.1595 223.9107 0001345  96.0777 330.8278 15.31681963    17

Acompanhe STARLINK-3681 em tempo real com AllMySat

Download on the App Store